カタログに戻る

STARLINK-31333

運用中通信VLEO
NORAD 58971·PAYLOAD·🇺🇸 United States

打ち上げ Feb 15, 2024 から Vandenberg Space Force Base

Loading…

次のパス (今後24時間)

TLE

最新Source: CelesTrak SupGP

元期: Sep 14, 2026, 21:32 UTC

1 58971C 24031G   26257.89770833 -.00007823  00000+0 -23129-3 0  2575
2 58971  53.1574 123.5467 0001440  76.7541 265.6898 15.34372969    18

AllMySatでSTARLINK-31333をリアルタイム追跡

Download on the App Store